Regional Weather Roundup
Issued by NWS Tiyan, Guam

Home | Current Version | Previous Version | Text Only | Print | Product List | Glossary On
Versions: 1 2 3 4 5 6 7 8 9 10 11 12 13 14 15 16 17 18 19 20 21 22 23 24 25 26 27 28 29 30 31 32 33 34 35 36 37 38
000
ASGM40 PGUM 220612
RWRGUM
WEATHER ROUNDUP FOR THE MARIANAS
NATIONAL WEATHER SERVICE TIYAN GU
400 PM CHST WED OCT 22 2014

GUZ001>004-220700-
MARIANA ISLANDS-

CITY           SKY/WX    TMP DP  RH WIND       PRES   REMARKS
GUAM AIRPORT   MOSUNNY   88  73  62 E9        29.78S HX  96
ANDERSEN AFB   MOSUNNY   84  75  74 NE8       29.78F HX  92
ROTA AIRPORT   MOSUNNY   82  75  78 E9        29.79S
TINIAN AP      PTSUNNY   84  77  79 E10       29.77S HX  94
SAIPAN AP      MOSUNNY   84  75  74 NE14      29.78F HX  92

$$




USA.gov is the U.S. government's official web portal to all federal, state and local government web resources and services.